カタログに戻る

STARLINK-30972

運用中通信VLEO
NORAD 58721·PAYLOAD·🇺🇸 United States

打ち上げ Jan 3, 2024 から Vandenberg Space Force Base

Loading…

次のパス (今後24時間)

TLE

最新Source: CelesTrak SupGP

元期: Sep 15, 2026, 03:04 UTC

1 58721C 24002S   26258.12826389 -.00029026  00000+0 -85769-3 0  2589
2 58721  53.1588  68.6179 0001149  87.0513 103.2288 15.34401769    16

AllMySatでSTARLINK-30972をリアルタイム追跡

Download on the App Store